Garrison, ND

4:04 AM CDT on April 25, 2018 (GMT -0500)
Garrison

Weather History for KN60 - April, 2013

Change the Weather History Date:

Friday, April 5, 2013

  Actual Average Record
Temperature  
Mean Temperature 34 °F -  
Max Temperature 44 °F - 70 °F (2012)
Min Temperature 24 °F - 2 °F (2018)
Degree Days  
Heating Degree Days 31    
Month to date heating degree days 179  
Cooling Degree Days 0    
Month to date cooling degree days 0  
Year to date cooling degree days 0  
Moisture  
Dew Point 24 °F    
Average Humidity 71    
Maximum Humidity 92    
Minimum Humidity 49    
Precipitation  
Precipitation 0.01 in - 0.05 in (2018)
Month to date precipitation 0.01  
Year to date precipitation 2.08  
Sea Level Pressure  
Sea Level Pressure 29.93 in    
Wind  
Wind Speed 15 mph (SE)    
Max Wind Speed 23 mph    
Max Gust Speed 28 mph    
T = Trace of Precipitation, MM = Missing Value Source: NWS Daily Summary

Daily Weather History Graph

Daily Weather History Graph

Search for Another Location

Airport or City:

Astronomy

Apr. 05, 2013 Rise Set
Actual Time 7:15 AM CDT 8:21 PM CDT
Civil Twilight 6:44 AM CDT 8:53 PM CDT
Nautical Twilight 6:06 AM CDT 9:31 PM CDT
Astronomical Twilight 5:26 AM CDT 10:11 PM CDT
Moon 4:43 AM CDT (4/5) 3:29 PM CDT (4/5)
Length of Visible Light 14h 09m
Length of Day
13h 05m
Waning Crescent, 23% of the Moon is Illuminated
Apr 5
Waning Crescent
Apr 10
New
Apr 18
First Quarter
Apr 25
Full
May 2
Last Quarter

Hourly Weather History & Observations

Time (CDT) Temp. Windchill Dew Point Humidity Pressure Visibility Wind Dir Wind Speed Gust Speed Precip Events Conditions
12:52 AM 25.0 °F 14.8 °F 21.9 °F 88% 30.21 in - ESE 10.4 mph - N/A   Unknown
1:52 AM 24.1 °F 14.4 °F 21.9 °F 91% 30.19 in - ESE 9.2 mph - N/A   Unknown
2:52 AM 25.0 °F 14.2 °F 21.9 °F 88% 30.17 in - ESE 11.5 mph - N/A   Unknown
3:52 AM 25.0 °F 13.6 °F 21.9 °F 88% 30.14 in - ESE 12.7 mph - N/A   Unknown
4:52 AM 26.1 °F 15.6 °F 21.9 °F 84% 30.13 in - SE 11.5 mph - N/A   Unknown
5:52 AM 26.1 °F 15.0 °F 21.9 °F 84% 30.11 in - ESE 12.7 mph - N/A   Unknown
6:52 AM 27.0 °F 15.6 °F 23.0 °F 85% 30.07 in - SE 13.8 mph - N/A   Unknown
7:52 AM 27.0 °F 13.5 °F 23.0 °F 85% 30.04 in - SE 19.6 mph 24.2 mph N/A   Unknown
8:52 AM 27.0 °F 14.3 °F 24.1 °F 89% 30.03 in - SE 17.3 mph - N/A   Unknown
9:52 AM 28.0 °F 14.9 °F 21.9 °F 78% 30.00 in - SE 19.6 mph 26.5 mph N/A   Unknown
10:52 AM 28.0 °F 15.7 °F 21.0 °F 75% 29.98 in - SSE 17.3 mph - N/A   Unknown
11:52 AM 30.0 °F 17.5 °F 19.9 °F 66% 29.95 in - SE 19.6 mph - N/A   Unknown
12:52 PM 32.0 °F 20.1 °F 19.9 °F 61% 29.91 in - SE 19.6 mph 24.2 mph N/A   Unknown
1:52 PM 34.0 °F 23.4 °F 21.9 °F 61% 29.86 in - SE 17.3 mph - N/A   Unknown
2:52 PM 37.0 °F 27.0 °F 24.1 °F 59% 29.81 in - ESE 18.4 mph - N/A   Unknown
3:52 PM 39.0 °F 29.6 °F 28.9 °F 67% 29.78 in - ESE 18.4 mph - N/A   Unknown
4:52 PM 44.1 °F 37.1 °F 27.0 °F 51% 29.76 in - SSE 15.0 mph - N/A   Unknown
5:52 PM 44.1 °F 37.7 °F 28.0 °F 53% 29.74 in - South 12.7 mph - 0.01 in   Unknown
6:52 PM 43.0 °F 36.8 °F 28.9 °F 58% 29.74 in - SSE 11.5 mph - N/A   Unknown
7:52 PM 36.0 °F 28.5 °F 28.9 °F 76% 29.74 in - East 10.4 mph - N/A   Unknown
8:52 PM 34.0 °F 24.2 °F 28.9 °F 82% 29.73 in - ESE 15.0 mph - N/A   Unknown
9:52 PM 32.0 °F 23.0 °F 28.9 °F 88% 29.76 in - ESE 11.5 mph - N/A   Unknown
10:52 PM 30.9 °F 22.8 °F 28.9 °F 92% 29.76 in - SE 9.2 mph - N/A   Unknown
11:52 PM 32.0 °F 23.6 °F 28.9 °F 88% 29.75 in - SE 10.4 mph - N/A   Unknown